When you browse on this site, cookies collect data to enhance your experience and personalize the content and advertising you see.
Visit our Privacy Policy to learn more. By continuing to use the site, you agree to this use of cookies and data.
  • In Romania
  • List of Countries
  • For 7 days
  • Water Temperature
  • Satellite Maps
  • Weather Map
  • Weather Widgets
  • user-avatar
    Login

    Hourly Weather Arriate

    Today, 25 April, Thursday

    Time Temperature Precipitation Wind Pressure Humidity
    00:00 +10°C° 0.6 mm 4 mps 690 mmHg 94%
    01:00 +10°C° 0.6 mm 4 mps 690 mmHg 94%
    02:00 +10°C° 0.6 mm 4 mps 690 mmHg 95%
    03:00 +11°C° 0.6 mm 4 mps 689 mmHg 95%
    04:00 +10°C° 1.3 mm 3 mps 690 mmHg 96%
    05:00 +10°C° 1.3 mm 3 mps 690 mmHg 96%
    06:00 +10°C° 1.3 mm 3 mps 690 mmHg 97%
    07:00 +10°C° 1.3 mm 2 mps 690 mmHg 97%
    08:00 +10°C° 1.3 mm 2 mps 691 mmHg 97%
    09:00 +10°C° 1.3 mm 2 mps 691 mmHg 97%
    10:00 +10°C° 0.3 mm 2 mps 691 mmHg 95%
    11:00 +10°C° 0.3 mm 2 mps 692 mmHg 93%
    12:00 +10°C° 0.3 mm 2 mps 692 mmHg 91%
    13:00 +11°C° 0.1 mm 3 mps 692 mmHg 84%
    14:00 +12°C° 0.1 mm 3 mps 693 mmHg 78%
    15:00 +13°C° 0.1 mm 4 mps 693 mmHg 71%
    16:00 +12°C° 0 mm 4 mps 693 mmHg 71%
    17:00 +12°C° 0 mm 4 mps 693 mmHg 70%
    18:00 +12°C° 0 mm 3 mps 693 mmHg 70%
    19:00 +10°C° 0 mm 3 mps 694 mmHg 75%
    20:00 +9°C° 0 mm 2 mps 694 mmHg 80%
    21:00 +7°C° 0 mm 2 mps 695 mmHg 85%
    22:00 +7°C° 0 mm 2 mps 695 mmHg 85%
    23:00 +6°C° 0 mm 2 mps 695 mmHg 84%

    Tomorrow, 26 April, Friday

    Time Temperature Precipitation Wind Pressure Humidity
    00:00 +6°C° 0 mm 2 mps 695 mmHg 84%
    01:00 +6°C° 0 mm 2 mps 695 mmHg 85%
    02:00 +5°C° 0 mm 2 mps 695 mmHg 85%
    03:00 +5°C° 0 mm 2 mps 695 mmHg 85%
    04:00 +5°C° 0 mm 2 mps 695 mmHg 85%
    05:00 +5°C° 0 mm 2 mps 696 mmHg 85%
    06:00 +5°C° 0 mm 2 mps 696 mmHg 86%
    07:00 +7°C° 0 mm 2 mps 696 mmHg 76%
    08:00 +9°C° 0 mm 2 mps 697 mmHg 65%
    09:00 +11°C° 0 mm 3 mps 698 mmHg 55%
    10:00 +13°C° 0 mm 3 mps 698 mmHg 51%
    11:00 +14°C° 0 mm 3 mps 698 mmHg 46%
    12:00 +17°C° 0 mm 3 mps 699 mmHg 41%
    13:00 +17°C° 0 mm 3 mps 698 mmHg 42%
    14:00 +17°C° 0 mm 3 mps 698 mmHg 42%
    15:00 +18°C° 0 mm 3 mps 698 mmHg 43%
    16:00 +17°C° 0 mm 2 mps 697 mmHg 48%
    17:00 +16°C° 0 mm 2 mps 697 mmHg 53%
    18:00 +15°C° 0 mm 2 mps 697 mmHg 59%
    19:00 +14°C° 0 mm 2 mps 697 mmHg 61%
    20:00 +12°C° 0 mm 2 mps 697 mmHg 64%
    21:00 +10°C° 0 mm 1 mps 697 mmHg 66%
    22:00 +10°C° 0 mm 1 mps 697 mmHg 67%
    23:00 +10°C° 0 mm 1 mps 697 mmHg 68%

    Day after tomorrow, 27 April, Saturday

    Time Temperature Precipitation Wind Pressure Humidity
    00:00 +9°C° 0 mm 1 mps 697 mmHg 69%
    01:00 +9°C° 0 mm 1 mps 696 mmHg 72%
    02:00 +9°C° 0 mm 1 mps 696 mmHg 75%
    03:00 +8°C° 0 mm 1 mps 696 mmHg 78%
    04:00 +8°C° 0 mm 2 mps 696 mmHg 78%
    05:00 +8°C° 0 mm 2 mps 696 mmHg 79%
    06:00 +8°C° 0 mm 2 mps 696 mmHg 79%
    07:00 +10°C° 0 mm 2 mps 696 mmHg 70%
    08:00 +14°C° 0 mm 2 mps 697 mmHg 60%
    09:00 +16°C° 0 mm 3 mps 698 mmHg 51%
    10:00 +17°C° 0 mm 3 mps 698 mmHg 46%
    11:00 +18°C° 0 mm 3 mps 698 mmHg 42%
    12:00 +19°C° 0 mm 3 mps 698 mmHg 38%
    13:00 +20°C° 0 mm 3 mps 697 mmHg 38%
    14:00 +20°C° 0 mm 3 mps 697 mmHg 38%
    15:00 +20°C° 0 mm 3 mps 696 mmHg 38%
    16:00 +19°C° 0 mm 3 mps 696 mmHg 43%
    17:00 +18°C° 0 mm 3 mps 696 mmHg 48%
    18:00 +16°C° 0 mm 2 mps 695 mmHg 54%
    19:00 +14°C° 0 mm 2 mps 695 mmHg 57%
    20:00 +12°C° 0 mm 2 mps 695 mmHg 61%
    21:00 +10°C° 0 mm 2 mps 695 mmHg 65%
    22:00 +9°C° 0 mm 2 mps 695 mmHg 65%
    23:00 +9°C° 0 mm 2 mps 695 mmHg 64%

    28 April, Sunday

    Time Temperature Precipitation Wind Pressure Humidity
    00:00 +9°C° 0 mm 2 mps 695 mmHg 64%
    01:00 +9°C° 0 mm 2 mps 694 mmHg 63%
    02:00 +8°C° 0 mm 2 mps 694 mmHg 63%
    03:00 +8°C° 0 mm 2 mps 693 mmHg 62%
    04:00 +8°C° 0 mm 2 mps 693 mmHg 59%
    05:00 +8°C° 0 mm 2 mps 693 mmHg 56%
    06:00 +8°C° 0 mm 2 mps 693 mmHg 53%
    07:00 +12°C° 0 mm 2 mps 693 mmHg 48%
    08:00 +13°C° 0 mm 3 mps 694 mmHg 43%
    09:00 +17°C° 0 mm 3 mps 694 mmHg 37%
    10:00 +18°C° 0 mm 3 mps 694 mmHg 35%
    11:00 +19°C° 0 mm 3 mps 694 mmHg 33%
    12:00 +20°C° 0 mm 4 mps 694 mmHg 31%
    13:00 +21°C° 0 mm 3 mps 694 mmHg 32%
    14:00 +21°C° 0 mm 3 mps 693 mmHg 32%
    15:00 +21°C° 0 mm 3 mps 693 mmHg 33%
    16:00 +20°C° 0 mm 3 mps 692 mmHg 38%
    17:00 +18°C° 0 mm 2 mps 692 mmHg 44%
    18:00 +17°C° 0 mm 2 mps 692 mmHg 49%
    19:00 +15°C° 0 mm 2 mps 692 mmHg 51%
    20:00 +13°C° 0 mm 2 mps 692 mmHg 53%
    21:00 +10°C° 0 mm 2 mps 691 mmHg 56%
    22:00 +10°C° 0 mm 2 mps 691 mmHg 57%
    23:00 +10°C° 0 mm 2 mps 691 mmHg 59%

    29 April, Monday

    Time Temperature Precipitation Wind Pressure Humidity
    00:00 +9°C° 0 mm 2 mps 691 mmHg 60%
    01:00 +9°C° 0 mm 2 mps 691 mmHg 62%
    02:00 +9°C° 0 mm 2 mps 691 mmHg 63%
    03:00 +9°C° 0 mm 2 mps 690 mmHg 65%
    04:00 +9°C° 0 mm 2 mps 690 mmHg 64%
    05:00 +9°C° 0 mm 2 mps 690 mmHg 63%
    06:00 +9°C° 0 mm 2 mps 690 mmHg 62%
    07:00 +12°C° 0 mm 2 mps 691 mmHg 58%
    08:00 +14°C° 0 mm 3 mps 691 mmHg 53%
    09:00 +17°C° 0 mm 3 mps 692 mmHg 48%
    10:00 +18°C° 0 mm 3 mps 692 mmHg 46%
    11:00 +19°C° 0 mm 3 mps 692 mmHg 43%
    12:00 +20°C° 0 mm 3 mps 692 mmHg 41%
    13:00 +20°C° 0 mm 3 mps 692 mmHg 41%
    14:00 +21°C° 0 mm 3 mps 691 mmHg 40%
    15:00 +21°C° 0 mm 3 mps 691 mmHg 40%
    16:00 +20°C° 0 mm 2 mps 691 mmHg 45%
    17:00 +18°C° 0 mm 2 mps 690 mmHg 50%
    18:00 +17°C° 0 mm 2 mps 690 mmHg 54%
    19:00 +15°C° 0 mm 2 mps 690 mmHg 57%
    20:00 +14°C° 0 mm 2 mps 690 mmHg 60%
    21:00 +12°C° 0 mm 2 mps 690 mmHg 63%
    22:00 +10°C° 0 mm 2 mps 690 mmHg 62%
    23:00 +10°C° 0 mm 2 mps 690 mmHg 62%

    30 April, Tuesday

    Time Temperature Precipitation Wind Pressure Humidity
    00:00 +10°C° 0 mm 2 mps 690 mmHg 61%
    01:00 +10°C° 0 mm 2 mps 689 mmHg 60%
    02:00 +9°C° 0 mm 2 mps 689 mmHg 60%
    03:00 +9°C° 0 mm 2 mps 689 mmHg 60%
    04:00 +9°C° 0 mm 2 mps 689 mmHg 61%
    05:00 +9°C° 0 mm 2 mps 689 mmHg 61%
    06:00 +9°C° 0 mm 2 mps 689 mmHg 62%
    07:00 +13°C° 0 mm 2 mps 690 mmHg 56%
    08:00 +15°C° 0 mm 2 mps 690 mmHg 50%
    09:00 +18°C° 0 mm 2 mps 691 mmHg 43%
    10:00 +19°C° 0 mm 2 mps 691 mmHg 40%
    11:00 +20°C° 0 mm 2 mps 691 mmHg 37%
    12:00 +21°C° 0 mm 2 mps 691 mmHg 34%
    13:00 +23°C° 0 mm 2 mps 691 mmHg 35%
    14:00 +23°C° 0 mm 2 mps 691 mmHg 36%
    15:00 +23°C° 0 mm 2 mps 690 mmHg 36%
    16:00 +21°C° 0 mm 2 mps 690 mmHg 42%
    17:00 +21°C° 0 mm 1 mps 690 mmHg 48%
    18:00 +20°C° 0 mm 1 mps 689 mmHg 53%
    19:00 +18°C° 0 mm 1 mps 689 mmHg 59%
    20:00 +15°C° 0 mm 1 mps 689 mmHg 64%
    21:00 +13°C° 0 mm 2 mps 689 mmHg 69%
    22:00 +12°C° 0 mm 2 mps 689 mmHg 68%
    23:00 +12°C° 0 mm 2 mps 688 mmHg 68%
    Show more